Flag for United Kingdom Weather past 2 weeks in Lerwick (Shetland Islands), Scotland, United Kingdom

Now
54 °F

Partly sunny.


Feels Like: 49 °F
Forecast: 51 / 56 °F
Wind: 16 mph from North

Location: Lerwick

Current Time: Aug 31, 2015 at 7:49:21 PM

Latest Report: Aug 31, 2015 at 7:00 PM


Visibility: 16 mi

Pressure: 30.01 "Hg

Humidity: 95%

Dew point: 52 °F

Location of Lerwick (Shetland Islands)Location

Historic Weather in Lerwick (Shetland Islands) — Graph

°F

Lerwick (Shetland Islands) temperature yesterday

Maximum temperature yesterday: 60 °F (at 1:00 PM)
Minimum temperature yesterday: 53 °F (at 10:00 PM)
Average temperature yesterday: 55 °F

Past Weeks' High & Low Weather Summary

 TemperatureHumidityPressure
High63 °F (Aug 24, 2:00 PM)100% (Aug 17, 2:00 AM)30.17 "Hg (Aug 17, 2:00 AM)
Low48 °F (Aug 17, 4:00 AM)69% (Aug 24, 6:00 AM)29.23 "Hg (Aug 26, 8:00 PM)
Average56 °F93%29.82 "Hg
* Reported Aug 16 6:00 PM — Aug 31 6:00 PM, Lerwick (Shetland Islands), Weather by CustomWeather, © 2015

Note: Actual official high and low records may vary slightly from our data, if they occured in-between our weather recording intervals... More about our weather records

Advertising

Lerwick (Shetland Islands) weather history for previous 24 hours

 ConditionsComfort  
Time TempWeatherWind HumidityBarometerVisibility
6:00 PM
Mon, Aug 31
54 °FSprinkles. Partly sunny.17 mph97%30.00 "Hg11 mi
5:00 PM54 °FSprinkles. Low clouds.17 mph97%30.00 "Hg11 mi
4:00 PM55 °FSprinkles. Low clouds.13 mph91%29.99 "Hg16 mi
2:00 PM56 °FScattered clouds.9 mph86%29.98 "Hg31 mi
1:00 PM54 °FLow clouds.13 mph94%29.98 "Hg16 mi
12:00 PM56 °FPartly sunny.10 mph86%29.97 "Hg25 mi
11:00 AM55 °FSprinkles. Low clouds.9 mph92%29.97 "Hg11 mi
10:00 AM55 °FPartly sunny.8 mph91%29.97 "Hg25 mi
9:00 AM54 °FSprinkles. Low clouds.7 mph93%29.96 "Hg16 mi
8:00 AM53 °FLow clouds.8 mph95%29.95 "Hg28 mi
7:00 AM53 °FLow clouds.9 mph98%29.95 "Hg19 mi
6:00 AM53 °FLow clouds.12 mph99%29.94 "Hg11 mi
5:00 AM53 °FFog.12 mph99%29.93 "Hg2 mi
4:00 AM53 °FSprinkles. Low clouds.14 mph99%29.93 "Hg5 mi
3:00 AM53 °FLow clouds.12 mph98%29.93 "Hg12 mi
2:00 AM53 °FLow clouds.13 mph98%29.94 "Hg9 mi
1:00 AM53 °FLight rain. Low clouds.15 mph98%29.93 "Hg1 mi
12:00 AM52 °FLow clouds.16 mph97%29.94 "Hg11 mi
11:00 PM
Sun, Aug 30
53 °FLow clouds.16 mph97%29.94 "Hg12 mi
10:00 PM53 °FLow clouds.16 mph96%29.94 "Hg11 mi
9:00 PM53 °FSprinkles. Overcast.15 mph95%29.93 "Hg11 mi
8:00 PM54 °FSprinkles. Low clouds.13 mph96%29.93 "Hg7 mi
7:00 PM54 °FPartly sunny.14 mph94%29.92 "Hg19 mi
Weather by CustomWeather, © 2015

See weather overviewHow to use our weather pages